When you browse on this site, cookies collect data to enhance your experience and personalize the content and advertising you see.
Visit our Privacy Policy to learn more. By continuing to use the site, you agree to this use of cookies and data.
  • In France
  • List of Countries
  • For 7 days
  • Water Temperature
  • Weather Map
  • Weather Widgets
  • user-avatar
    Login

    Hourly Weather Paris

    Today, 18 February, Tuesday

    Time Temperature Precipitation Wind Pressure Humidity
    00:00 +5°C° 0 mm 5 mps 763 mmHg 72%
    01:00 +5°C° 0 mm 5 mps 764 mmHg 74%
    02:00 +5°C° 0 mm 5 mps 764 mmHg 75%
    03:00 +3°C° 0 mm 5 mps 764 mmHg 76%
    04:00 +3°C° 0 mm 5 mps 764 mmHg 76%
    05:00 +4°C° 0 mm 4 mps 765 mmHg 77%
    06:00 +4°C° 0 mm 4 mps 765 mmHg 78%
    07:00 +3°C° 0 mm 5 mps 765 mmHg 75%
    08:00 +5°C° 0 mm 5 mps 765 mmHg 73%
    09:00 +5°C° 0 mm 5 mps 766 mmHg 71%
    10:00 +6°C° 0 mm 5 mps 766 mmHg 67%
    11:00 +8°C° 0 mm 5 mps 765 mmHg 62%
    12:00 +9°C° 0 mm 6 mps 765 mmHg 58%
    13:00 +9°C° 0 mm 6 mps 765 mmHg 57%
    14:00 +9°C° 0 mm 6 mps 764 mmHg 56%
    15:00 +10°C° 0 mm 6 mps 764 mmHg 55%
    16:00 +9°C° 0 mm 5 mps 764 mmHg 58%
    17:00 +8°C° 0 mm 5 mps 763 mmHg 61%
    18:00 +8°C° 0 mm 5 mps 763 mmHg 64%
    19:00 +8°C° 0 mm 5 mps 763 mmHg 67%
    20:00 +7°C° 0 mm 6 mps 763 mmHg 69%
    21:00 +7°C° 0 mm 6 mps 762 mmHg 72%
    22:00 +6°C° 0.1 mm 7 mps 762 mmHg 73%
    23:00 +6°C° 0.1 mm 7 mps 761 mmHg 74%

    Tomorrow, 19 February, Wednesday

    Time Temperature Precipitation Wind Pressure Humidity
    00:00 +6°C° 0.1 mm 7 mps 761 mmHg 75%
    01:00 +6°C° 0.8 mm 7 mps 761 mmHg 75%
    02:00 +5°C° 0.8 mm 6 mps 761 mmHg 75%
    03:00 +6°C° 0.8 mm 5 mps 761 mmHg 76%
    04:00 +5°C° 0 mm 5 mps 762 mmHg 75%
    05:00 +5°C° 0 mm 4 mps 762 mmHg 75%
    06:00 +4°C° 0 mm 4 mps 763 mmHg 74%
    07:00 +5°C° 0 mm 4 mps 763 mmHg 74%
    08:00 +5°C° 0 mm 4 mps 764 mmHg 73%
    09:00 +6°C° 0 mm 4 mps 764 mmHg 72%
    10:00 +6°C° 0.1 mm 4 mps 764 mmHg 70%
    11:00 +7°C° 0.1 mm 4 mps 764 mmHg 67%
    12:00 +7°C° 0.1 mm 5 mps 764 mmHg 65%
    13:00 +8°C° 0 mm 4 mps 764 mmHg 67%
    14:00 +8°C° 0 mm 4 mps 763 mmHg 69%
    15:00 +8°C° 0 mm 4 mps 763 mmHg 71%
    16:00 +9°C° 0 mm 3 mps 763 mmHg 73%
    17:00 +9°C° 0 mm 3 mps 762 mmHg 76%
    18:00 +9°C° 0 mm 3 mps 762 mmHg 78%
    19:00 +9°C° 0.1 mm 3 mps 762 mmHg 80%
    20:00 +8°C° 0.1 mm 4 mps 762 mmHg 82%
    21:00 +7°C° 0.1 mm 4 mps 762 mmHg 84%
    22:00 +7°C° 0 mm 4 mps 761 mmHg 84%
    23:00 +7°C° 0 mm 4 mps 761 mmHg 84%

    Day after tomorrow, 20 February, Thursday

    Time Temperature Precipitation Wind Pressure Humidity
    00:00 +6°C° 0 mm 4 mps 761 mmHg 84%
    01:00 +7°C° 0 mm 4 mps 760 mmHg 82%
    02:00 +7°C° 0 mm 4 mps 760 mmHg 81%
    03:00 +7°C° 0 mm 4 mps 759 mmHg 80%
    04:00 +7°C° 0 mm 4 mps 759 mmHg 80%
    05:00 +7°C° 0 mm 4 mps 759 mmHg 80%
    06:00 +7°C° 0 mm 4 mps 759 mmHg 80%
    07:00 +7°C° 0 mm 5 mps 759 mmHg 79%
    08:00 +7°C° 0 mm 5 mps 758 mmHg 78%
    09:00 +8°C° 0 mm 5 mps 758 mmHg 78%
    10:00 +8°C° 0 mm 6 mps 758 mmHg 73%
    11:00 +9°C° 0 mm 6 mps 758 mmHg 68%
    12:00 +10°C° 0 mm 6 mps 758 mmHg 64%
    13:00 +9°C° 0 mm 6 mps 758 mmHg 65%
    14:00 +9°C° 0 mm 6 mps 757 mmHg 66%
    15:00 +9°C° 0 mm 7 mps 757 mmHg 68%
    16:00 +9°C° 0 mm 7 mps 757 mmHg 69%
    17:00 +9°C° 0 mm 7 mps 757 mmHg 70%
    18:00 +9°C° 0 mm 7 mps 757 mmHg 72%
    19:00 +8°C° 0.5 mm 6 mps 758 mmHg 73%
    20:00 +7°C° 0.5 mm 6 mps 759 mmHg 74%
    21:00 +5°C° 0.5 mm 6 mps 761 mmHg 76%
    22:00 +6°C° 0 mm 5 mps 762 mmHg 73%
    23:00 +5°C° 0 mm 4 mps 763 mmHg 70%

    21 February, Friday

    Time Temperature Precipitation Wind Pressure Humidity
    00:00 +4°C° 0 mm 4 mps 764 mmHg 68%
    01:00 +4°C° 0 mm 3 mps 765 mmHg 69%
    02:00 +3°C° 0 mm 3 mps 765 mmHg 69%
    03:00 +4°C° 0 mm 2 mps 766 mmHg 70%
    04:00 +4°C° 0 mm 2 mps 767 mmHg 72%
    05:00 +3°C° 0 mm 2 mps 767 mmHg 73%
    06:00 +3°C° 0 mm 2 mps 768 mmHg 75%
    13:00 +9°C° 0 mm 3 mps 769 mmHg 53%
    14:00 +9°C° 0 mm 3 mps 769 mmHg 53%
    15:00 +9°C° 0 mm 3 mps 769 mmHg 53%
    16:00 +8°C° 0 mm 2 mps 769 mmHg 56%
    17:00 +8°C° 0 mm 2 mps 769 mmHg 60%
    18:00 +7°C° 0 mm 2 mps 768 mmHg 63%
    19:00 +7°C° 0 mm 2 mps 769 mmHg 66%
    20:00 +6°C° 0 mm 2 mps 769 mmHg 68%
    21:00 +6°C° 0 mm 2 mps 769 mmHg 70%
    22:00 +6°C° 0 mm 2 mps 769 mmHg 72%
    23:00 +4°C° 0 mm 3 mps 769 mmHg 73%

    22 February, Saturday

    Time Temperature Precipitation Wind Pressure Humidity
    00:00 +4°C° 0 mm 3 mps 769 mmHg 74%
    01:00 +4°C° 0 mm 3 mps 768 mmHg 75%
    02:00 +4°C° 0 mm 3 mps 768 mmHg 76%
    03:00 +3°C° 0 mm 3 mps 768 mmHg 76%
    04:00 +3°C° 0 mm 4 mps 768 mmHg 76%
    05:00 +3°C° 0 mm 4 mps 768 mmHg 76%
    06:00 +3°C° 0 mm 4 mps 768 mmHg 76%
    07:00 +3°C° 0 mm 4 mps 768 mmHg 73%
    08:00 +4°C° 0 mm 4 mps 768 mmHg 70%
    09:00 +5°C° 0 mm 5 mps 769 mmHg 67%
    10:00 +6°C° 0 mm 5 mps 769 mmHg 64%
    11:00 +8°C° 0 mm 5 mps 769 mmHg 61%
    12:00 +9°C° 0 mm 5 mps 769 mmHg 58%
    13:00 +10°C° 0 mm 5 mps 768 mmHg 58%
    14:00 +10°C° 0 mm 5 mps 768 mmHg 58%
    15:00 +12°C° 0 mm 5 mps 767 mmHg 59%
    16:00 +11°C° 0 mm 4 mps 768 mmHg 64%
    17:00 +10°C° 0 mm 4 mps 768 mmHg 69%
    18:00 +8°C° 0 mm 4 mps 768 mmHg 74%
    19:00 +9°C° 0 mm 3 mps 768 mmHg 77%
    20:00 +9°C° 0 mm 3 mps 769 mmHg 80%
    21:00 +9°C° 0 mm 3 mps 769 mmHg 82%
    22:00 +9°C° 0 mm 3 mps 769 mmHg 83%
    23:00 +9°C° 0 mm 3 mps 769 mmHg 85%

    23 February, Sunday

    Time Temperature Precipitation Wind Pressure Humidity
    00:00 +9°C° 0 mm 3 mps 769 mmHg 86%
    01:00 +8°C° 0 mm 3 mps 768 mmHg 87%
    02:00 +8°C° 0 mm 3 mps 768 mmHg 87%
    03:00 +8°C° 0 mm 3 mps 768 mmHg 88%
    04:00 +7°C° 0 mm 3 mps 768 mmHg 89%
    05:00 +7°C° 0 mm 3 mps 768 mmHg 90%
    06:00 +7°C° 0 mm 3 mps 768 mmHg 91%
    07:00 +6°C° 0 mm 4 mps 768 mmHg 88%
    08:00 +7°C° 0 mm 4 mps 768 mmHg 86%
    09:00 +7°C° 0 mm 4 mps 768 mmHg 83%
    10:00 +10°C° 0 mm 4 mps 768 mmHg 78%
    11:00 +11°C° 0 mm 4 mps 767 mmHg 72%
    12:00 +13°C° 0 mm 4 mps 767 mmHg 66%
    13:00 +13°C° 0 mm 4 mps 767 mmHg 63%
    14:00 +14°C° 0 mm 4 mps 766 mmHg 59%
    15:00 +14°C° 0 mm 4 mps 765 mmHg 56%
    16:00 +13°C° 0 mm 4 mps 765 mmHg 59%
    17:00 +12°C° 0 mm 3 mps 765 mmHg 63%
    18:00 +11°C° 0 mm 3 mps 765 mmHg 66%
    19:00 +10°C° 0 mm 3 mps 765 mmHg 68%
    20:00 +10°C° 0 mm 3 mps 765 mmHg 70%
    21:00 +9°C° 0 mm 3 mps 765 mmHg 73%
    22:00 +8°C° 0 mm 3 mps 764 mmHg 74%
    23:00 +8°C° 0 mm 3 mps 764 mmHg 74%
    Show more